Change the Weather History Date:

Sunday, October 28, 2012

  Actual Average Record
Temperature  
Mean Temperature 52 °F -  
Max Temperature 55 °F 50 °F 68 °F (2010)
Min Temperature 48 °F 32 °F 23 °F (1999)
Degree Days  
Heating Degree Days 14    
Growing Degree Days 2 (Base 50)    
Moisture  
Dew Point 44 °F    
Average Humidity 76    
Maximum Humidity 87    
Minimum Humidity 53    
Precipitation  
Precipitation 0.04 in - - ()
Sea Level Pressure  
Sea Level Pressure 29.96 in    
Wind  
Wind Speed 3 mph (ENE)    
Max Wind Speed 8 mph    
Max Gust Speed 16 mph    
Visibility 8 miles    
Events Rain    
Averages and records for this station are not official NWS values.
T = Trace of Precipitation, MM = Missing Value Source: NWS Daily Summary

Daily Weather History Graph

Daily Weather History Graph

Search for Another Location

Airport or City:

Trip Planner

Search our weather history database for the weather conditions in past years. The results will help you decide how hot, cold, wet, or windy it might be!

Date:

Astronomy

Oct. 28, 2012 Rise Set
Actual Time 7:17 AM EDT 5:45 PM EDT
Civil Twilight 6:48 AM EDT 6:14 PM EDT
Nautical Twilight 6:15 AM EDT 6:47 PM EDT
Astronomical Twilight 5:42 AM EDT 7:20 PM EDT
Moon 5:01 PM EDT (10/28) 6:07 AM EDT (10/28)
Length of Visible Light 11h 25m
Length of Day
10h 27m
Waxing Gibbous, 99% of the Moon is Illuminated
Oct 28
Waxing Gibbous
Oct 29
Full
Nov 6
Last Quarter
Nov 13
New
Nov 20
First Quarter

Hourly Weather History & Observations

Time (EDT) Temp. Dew Point Humidity Pressure Visibility Wind Dir Wind Speed Gust Speed Precip Events Conditions
12:52 AM 55.0 °F 46.0 °F 72% 30.05 in 10.0 mi Calm Calm - N/A   Overcast
1:52 AM 54.0 °F 44.1 °F 69% 30.03 in 10.0 mi Calm Calm - N/A   Overcast
2:52 AM 54.0 °F 41.0 °F 62% 30.02 in 10.0 mi Calm Calm - N/A   Overcast
3:52 AM 54.0 °F 37.0 °F 53% 30.02 in 10.0 mi Variable 3.5 mph - N/A   Overcast
4:52 AM 52.0 °F 37.0 °F 57% 30.01 in 10.0 mi Calm Calm - N/A   Clear
5:52 AM 51.1 °F 39.0 °F 63% 30.02 in 10.0 mi Calm Calm - N/A   Clear
6:52 AM 50.0 °F 39.0 °F 66% 30.02 in 10.0 mi Calm Calm - N/A   Clear
7:52 AM 50.0 °F 39.9 °F 68% 30.03 in 10.0 mi Calm Calm - N/A   Clear
8:20 AM 50.0 °F 41.0 °F 71% 30.01 in 10.0 mi Variable 3.5 mph - N/A   Mostly Cloudy
8:52 AM 51.1 °F 42.1 °F 71% 30.04 in 10.0 mi Calm Calm - N/A   Overcast
9:36 AM 51.8 °F 42.8 °F 71% 30.01 in 10.0 mi Variable 4.6 mph - N/A   Overcast
9:52 AM 52.0 °F 44.1 °F 74% 30.04 in 10.0 mi Variable 3.5 mph - N/A   Overcast
10:52 AM 53.1 °F 44.1 °F 71% 30.02 in 10.0 mi Variable 6.9 mph - N/A   Overcast
11:09 AM 53.6 °F 44.6 °F 72% 30.01 in 10.0 mi Calm Calm - N/A   Overcast
11:24 AM 51.8 °F 44.6 °F 76% 30.00 in 7.0 mi Calm Calm - N/A   Overcast
11:52 AM 53.1 °F 45.0 °F 74% 30.01 in 10.0 mi Variable 6.9 mph - N/A   Overcast
12:52 PM 53.1 °F 45.0 °F 74% 29.99 in 10.0 mi Variable 4.6 mph - N/A   Overcast
1:52 PM 53.1 °F 46.0 °F 77% 29.96 in 8.0 mi Variable 5.8 mph - 0.00 in   Overcast
2:52 PM 52.0 °F 46.9 °F 83% 29.94 in 3.0 mi Calm Calm - 0.01 in Rain Light Rain
3:16 PM 51.8 °F 46.4 °F 82% 29.91 in 3.0 mi Variable 3.5 mph - 0.00 in   Haze
3:28 PM 51.8 °F 46.4 °F 82% 29.91 in 3.0 mi Variable 5.8 mph - 0.00 in Rain Light Rain
3:35 PM 51.8 °F 46.4 °F 82% 29.91 in 4.0 mi Variable 5.8 mph - 0.00 in   Haze
3:52 PM 52.0 °F 46.0 °F 80% 29.94 in 4.0 mi Variable 3.5 mph - 0.00 in   Haze
4:23 PM 51.8 °F 46.4 °F 82% 29.90 in 5.0 mi Variable 4.6 mph - 0.00 in Rain Light Rain
4:39 PM 51.8 °F 46.4 °F 82% 29.90 in 5.0 mi Variable 6.9 mph - 0.01 in Rain Light Rain
4:52 PM 51.1 °F 46.0 °F 83% 29.92 in 4.0 mi Variable 4.6 mph - 0.01 in Rain Light Rain
5:21 PM 51.8 °F 46.4 °F 82% 29.90 in 9.0 mi Variable 6.9 mph - 0.00 in   Overcast
5:52 PM 50.0 °F 45.0 °F 83% 29.92 in 10.0 mi Variable 5.8 mph - 0.00 in   Overcast
6:52 PM 50.0 °F 44.1 °F 80% 29.93 in 9.0 mi ENE 8.1 mph - N/A   Overcast
7:43 PM 50.0 °F 44.6 °F 82% 29.90 in 9.0 mi Variable 3.5 mph - N/A   Overcast
7:52 PM 50.0 °F 44.1 °F 80% 29.93 in 9.0 mi Variable 5.8 mph - N/A   Overcast
8:52 PM 48.9 °F 43.0 °F 80% 29.93 in 10.0 mi Variable 6.9 mph - N/A   Overcast
9:52 PM 48.0 °F 44.1 °F 86% 29.89 in 4.0 mi Variable 6.9 mph - 0.00 in   Overcast
9:59 PM 48.2 °F 44.6 °F 87% 29.86 in 2.5 mi Variable 6.9 mph - 0.00 in Rain Light Rain
10:52 PM 48.0 °F 44.1 °F 86% 29.87 in 3.0 mi Variable 5.8 mph 16.1 mph 0.01 in   Overcast
11:52 PM 48.9 °F 45.0 °F 86% 29.84 in 4.0 mi Variable 5.8 mph - 0.01 in Rain Light Rain